WS6A-13 Weather Reports


time (UTC)temp
F
wind
direction
speed
knots
gust
knots
rain 1hr
in
rain 24hr
in
rain mn
in
humidity
%
barometer
mb
20260508011503 50 128 0.0 0.0 0.00 0.00 0.00 70 1013.3
20260508010004 52 128 0.0 0.0 0.00 0.00 0.00 70 1013.3
20260508001504 56 128 0.0 0.0 0.00 0.00 0.00 61 1013.0
20260508000003 57 128 0.0 0.0 0.00 0.00 0.00 57 1013.0
20260507234504 57 163 0.0 1.7 0.00 0.00 0.00 52 1012.9
20260507233004 58 85 0.0 1.7 0.00 0.00 0.00 51 1012.8
20260507224505 58 64 0.0 1.7 0.00 0.00 0.00 44 1012.7
20260507221504 58 59 0.0 7.0 0.00 0.00 0.00 46 1013.0
20260507220004 58 63 0.0 1.7 0.00 0.00 0.00 46 1013.1
20260507214504 58 46 0.0 4.3 0.00 0.00 0.00 46 1013.1
20260507213004 59 17 0.9 2.6 0.00 0.00 0.00 45 1013.2
20260507204504 59 43 0.9 6.1 0.00 0.00 0.00 47 1012.9
20260507203003 60 223 0.0 2.6 0.00 0.00 0.00 49 1012.9
20260507201503 60 42 0.9 6.1 0.00 0.00 0.00 45 1012.9
20260507194504 59 50 0.9 4.3 0.00 0.00 0.00 47 1013.2
20260507193004 60 57 0.9 7.0 0.00 0.00 0.00 48 1013.3
20260507191504 60 61 0.0 5.2 0.00 0.00 0.00 53 1013.3
20260507190005 60 39 0.9 6.1 0.00 0.00 0.00 49 1013.3
20260507184504 59 99 1.7 7.0 0.00 0.00 0.00 50 1013.2
20260507183004 60 170 0.0 7.0 0.00 0.00 0.00 53 1013.6
20260507181504 59 14 0.9 7.8 0.00 0.00 0.00 53 1013.5
20260507180003 59 248 0.0 7.0 0.00 0.00 0.00 56 1013.7
20260507174504 59 15 1.7 6.1 0.00 0.00 0.00 49 1013.8
20260507171503 58 64 0.9 7.0 0.00 0.00 0.00 58 1014.2
20260507170004 57 219 0.0 7.8 0.00 0.00 0.00 53 1014.2
20260507164503 57 94 0.9 7.0 0.00 0.00 0.00 52 1014.4
20260507163004 56 122 0.9 6.1 0.00 0.00 0.00 51 1014.6
20260507161504 56 68 0.9 6.1 0.00 0.00 0.00 52 1014.5
20260507153004 55 32 1.7 7.0 0.00 0.00 0.00 52 1014.5
20260507151504 54 27 0.9 7.0 0.00 0.00 0.00 57 1014.4
20260507150005 54 73 0.9 7.0 0.00 0.00 0.00 52 1014.4
20260507144504 53 46 0.9 6.1 0.00 0.00 0.00 59 1014.4
20260507143004 52 245 0.9 5.2 0.00 0.00 0.00 58 1014.4
20260507141503 51 47 0.9 7.0 0.00 0.00 0.00 57 1014.5
20260507140005 50 101 0.9 7.0 0.00 0.01 0.00 58 1014.5
20260507134504 49 351 0.9 6.1 0.00 0.01 0.00 62 1014.5
20260507133004 48 55 0.9 4.3 0.00 0.01 0.00 63 1014.4
20260507131503 47 62 0.9 2.6 0.00 0.01 0.00 74 1014.5
20260507130004 46 59 0.0 2.6 0.00 0.01 0.00 80 1014.5
20260507124503 44 95 0.0 0.0 0.00 0.01 0.00 84 1014.6
20260507123004 43 95 0.0 0.9 0.00 0.01 0.00 88 1014.6
20260507121504 42 96 0.0 0.0 0.00 0.01 0.00 91 1014.6
20260507114503 41 96 0.0 0.0 0.00 0.01 0.00 92 1014.6
20260507113004 40 96 0.0 0.0 0.00 0.01 0.00 92 1014.6
20260507111504 39 96 0.0 0.0 0.00 0.01 0.00 91 1014.3
20260507104504 39 96 0.0 0.0 0.00 0.01 0.00 91 1014.0
20260507103009 39 61 0.0 0.0 0.00 0.01 0.00 90 1013.9
20260507094503 40 61 0.0 0.0 0.00 0.01 0.00 91 1013.9
20260507093003 41 61 0.0 0.0 0.00 0.01 0.00 91 1013.8
20260507091504 41 61 0.0 0.0 0.00 0.01 0.00 91 1013.7
20260507084503 41 61 0.0 0.0 0.00 0.01 0.00 91 1013.5
20260507083004 41 61 0.0 0.0 0.00 0.01 0.00 90 1013.4
20260507081504 42 61 0.0 0.0 0.00 0.01 0.00 90 1013.3
20260507074503 42 61 0.0 0.0 0.00 0.04 0.00 90 1013.3
20260507073004 42 61 0.0 0.0 0.00 0.05 0.00 90 1013.4
20260507071504 43 61 0.0 0.0 0.00 0.09 0.00 90 1013.5
20260507064504 43 61 0.0 0.0 0.00 0.12 0.00 89 1013.5
20260507063004 43 61 0.0 0.0 0.00 0.13 0.00 89 1013.5
20260507061504 44 61 0.0 0.0 0.00 0.14 0.00 88 1013.5
20260507054504 45 61 0.0 0.0 0.00 0.20 0.00 88 1013.7
20260507053004 45 61 0.0 0.0 0.00 0.23 0.00 87 1013.6
20260507051504 46 61 0.0 0.0 0.00 0.29 0.00 87 1013.7
20260507050023 46 61 0.0 0.0 0.00 0.40 0.00 87 1014.0
20260507044504 46 61 0.0 0.0 0.00 0.43 0.00 87 1013.8
20260507043003 46 61 0.0 0.0 0.00 0.48 0.00 87 1013.7
20260507041504 46 61 0.0 0.0 0.00 0.53 0.00 87 1013.7
20260507040020 46 61 0.0 0.0 0.00 0.54 0.00 87 1013.5
20260507034504 46 61 0.0 0.0 0.00 0.54 0.54 86 1013.6
20260507033004 46 61 0.0 0.0 0.00 0.55 0.54 85 1013.6
20260507031503 47 61 0.0 0.0 0.00 0.55 0.54 84 1013.7
20260507030017 47 61 0.0 0.0 0.00 0.56 0.54 83 1013.8
20260507024504 48 61 0.0 0.0 0.00 0.57 0.54 81 1013.8
20260507023004 48 61 0.0 0.0 0.00 0.60 0.54 82 1013.8
20260507021504 49 61 0.0 0.0 0.00 0.66 0.54 81 1013.7
20260507014511 50 61 0.0 0.0 0.00 0.72 0.54 79 1013.2
20260507013004 51 61 0.0 0.0 0.00 0.73 0.54 78 1013.0